Flag for U.S.A. Weather past 2 weeks in Victoria, Texas, U.S.A.

Now
80 °F

Passing clouds.


Feels Like: 86 °F
Forecast: 76 / 88 °F
Wind: 6 mph from Northeast

Location: Victoria Regional Airport

Current Time: Sep 18, 2014 at 11:20:15 PM

Latest Report: Sep 18, 2014 at 10:51 PM


Visibility: 10 mi

Pressure: 29.87 "Hg

Humidity: 94%

Dew point: 78 °F

Location of VictoriaLocation

Historic Weather in Victoria — Graph

°F

Victoria temperature yesterday

Maximum temperature yesterday: 95 °F (at 2:51 PM)
Minimum temperature yesterday: 76 °F (at 4:03 AM)
Average temperature yesterday: 83 °F

Past Weeks' High & Low Weather Summary

 TemperatureHumidityPressure
High99 °F (Sep 11, 2:51 PM)97% (Sep 9, 7:51 AM)30.18 "Hg (Sep 9, 7:51 AM)
Low68 °F (Sep 13, 7:51 AM)41% (Sep 8, 3:51 PM)29.80 "Hg (Sep 18, 4:51 PM)
Average82 °F79%29.98 "Hg
* Reported Sep 3 9:51 PM — Sep 18 9:51 PM, Victoria, Weather by CustomWeather, © 2014

Note: Actual official high and low records may vary slightly from our data, if they occured in-between our weather recording intervals... More about our weather records

Advertising

Victoria weather history for previous 24 hours

 ConditionsComfort  
Time TempWeatherWind HumidityBarometerVisibility
9:51 PM
Sep 18
81 °FPassing clouds.6 mph94%29.85 "Hg9 mi
8:51 PM81 °FPassing clouds.7 mph94%29.83 "Hg9 mi
7:51 PM82 °FMore clouds than sun.6 mph91%29.81 "Hg10 mi
6:51 PM82 °FMore clouds than sun.8 mph88%29.81 "Hg10 mi
5:51 PM83 °FMostly cloudy.10 mph79%29.81 "Hg10 mi
4:51 PM82 °FSunny.14 mph85%29.80 "Hg10 mi
3:51 PM81 °FThundershowers. Partly sunny.13 mph88%29.81 "Hg10 mi
2:58 PM79 °FThunderstorms. Cloudy.9 mph90%29.84 "Hg10 mi
2:04 PM92 °FScattered clouds.7 mph62%29.83 "Hg10 mi
1:51 PM89 °FThundershowers. Broken clouds.10 mph65%29.83 "Hg10 mi
12:51 PM89 °FPartly sunny.9 mph63%29.86 "Hg10 mi
12:02 PM88 °FBroken clouds.5 mph65%29.88 "Hg10 mi
10:51 AM85 °FPartly sunny.6 mph83%29.88 "Hg10 mi
9:51 AM82 °FFog.5 mph91%29.86 "Hg9 mi
8:53 AM81 °FFog.5 mph91%29.88 "Hg8 mi
7:51 AM79 °FFog.3 mph94%29.88 "Hg6 mi
6:59 AM79 °FPassing clouds.3 mph94%29.87 "Hg9 mi
5:51 AM80 °FOvercast.3 mph90%29.85 "Hg10 mi
4:51 AM79 °FMostly cloudy.No wind94%29.85 "Hg7 mi
3:51 AM79 °FPassing clouds.5 mph94%29.85 "Hg10 mi
2:51 AM79 °FClear.5 mph94%29.86 "Hg9 mi
1:51 AM79 °FFog.3 mph94%29.87 "Hg6 mi
12:51 AM80 °FPassing clouds.3 mph94%29.88 "Hg10 mi
11:51 PM
Sep 17
80 °FClear.5 mph94%29.88 "Hg10 mi
Weather by CustomWeather, © 2014

See weather overviewHow to use our weather pages